Regional Weather Roundup
Issued by NWS Little Rock, AR

Home | Current Version | Previous Version | Graphics & Text | Print | Product List | Glossary On
Versions: 1 2 3 4 5 6 7 8 9 10 11 12 13 14 15 16 17 18 19 20 21 22 23 24 25 26 27 28 29 30 31 32 33 34 35 36 37 38 39 40 41 42 43 44 45 46 47 48 49 50
000
ASUS44 KLZK 281305
RWRLZK

WEATHER ROUNDUP FOR ARKANSAS
NATIONAL WEATHER SERVICE LITTLE ROCK AR
700 AM CST WED JAN 28 2015

NOTE: "FAIR" INDICATES FEW OR NO CLOUDS BELOW 12,000 FEET WITH NO
SIGNIFICANT WEATHER AND/OR OBSTRUCTIONS TO VISIBILITY.

ARZ001-003-010-029-281400-
NORTHWEST ARKANSAS

CITY           SKY/WX    TMP DP  RH WIND       PRES   REMARKS
FAYETTEVILLE   CLEAR     49  34  56 S12       30.10R
FORT SMITH     CLEAR     41  35  79 E9        30.14R
HARRISON       CLEAR     38  33  82 SE15      30.13R
BENTONVILLE    CLEAR     39  28  65 SE7       30.09R
ROGERS         CLEAR     40  33  76 SE7       30.09R
SILOAM SPGS    CLEAR     52  32  46 S9        30.09R
HIGHFILL       CLEAR     42  32  67 S7        30.08R
SPRINGDALE     CLEAR     46  32  57 SE6       30.11R
$$

ARZ004-005-016-281400-
NORTH CENTRAL ARKANSAS

CITY           SKY/WX    TMP DP  RH WIND       PRES   REMARKS
BATESVILLE     CLEAR     32  28  86 E5        30.25R WCI  27
FLIPPIN        CLEAR     34  28  80 E6        30.19R WCI  29
MTN HOME       CLEAR     35  31  85 SE8       30.18R WCI  29
$$

ARZ040-041-281400-
WEST CENTRAL ARKANSAS

CITY           SKY/WX    TMP DP  RH WIND       PRES   REMARKS
MENA           CLEAR     36  34  93 CALM      30.18R
MOUNT IDA      CLEAR     31  29  92 CALM      30.16R
$$

ARZ009-017-025-026-028-281400-
NORTHEAST ARKANSAS

CITY           SKY/WX    TMP DP  RH WIND       PRES   REMARKS
CORNING        FAIR      32  28  86 SE8       30.28S WCI  25
JONESBORO      CLEAR     30  29  96 E8        30.27S WCI  22
NEWPORT        CLEAR     33  31  93 E6        30.28R FOG     WCI  27
WALNUT RIDGE   CLEAR     32  27  80 E6        30.27S WCI  26
BLYTHEVILLE    CLEAR     30  27  88 SE6       30.30R WCI  24
$$

ARZ022-023-033-042-044-281400-
CENTRAL ARKANSAS

CITY           SKY/WX    TMP DP  RH WIND       PRES   REMARKS
LITTLE ROCK    PTCLDY    36  33  89 E3        30.25R
N LITTLE ROCK    N/A     38  36  93 E6        30.25R
JACKSONVILLE   CLEAR     30  28  92 CALM      30.24R
SEARCY         CLEAR     34  32  92 NE5       30.27R WCI  30
HOT SPRINGS    CLEAR     42  35  76 E8        30.21R
RUSSELLVILLE   CLEAR     43  35  73 E8        30.21R
CLINTON        FAIR      28  27  93 CALM      30.26R
$$

ARZ036-281400-
EAST ARKANSAS

CITY           SKY/WX    TMP DP  RH WIND       PRES   REMARKS
WEST MEMPHIS   CLEAR     34  29  82 SE7       30.28R WCI  28
$$

ARZ050-053-066-070-073-281400-
SOUTHWEST ARKANSAS

CITY           SKY/WX    TMP DP  RH WIND       PRES   REMARKS
ARKADELPHIA    FAIR      37  35  92 NE5       30.23R
CAMDEN         CLEAR     32  30  93 CALM      30.23R
TEXARKANA      CLEAR     43  36  76 E5        30.17R
EL DORADO      CLEAR     40  36  86 CALM      30.22R
DE QUEEN       CLEAR     42  36  79 E5        30.16R
$$

ARZ056-057-069-281400-
SOUTHEAST ARKANSAS

CITY           SKY/WX    TMP DP  RH WIND       PRES   REMARKS
PINE BLUFF     CLEAR     36  33  89 E5        30.24R
STUTTGART      CLEAR     37  30  75 E5        30.26R
MONTICELLO     FAIR      38  34  85 E6        30.23R

$$





USA.gov is the U.S. government's official web portal to all federal, state and local government web resources and services.